Total_Precipitation_Accumulation
1.01 1.03 1.13 1.22 1.22 1.20 1.19 1.17 1.29 1.34 1.40 1.42 1.44 1.46 1.46 1.54 1.78 2.06 1.98 1.95 1.99 2.04 2.07 2.22 2.30 2.46 2.47 2.34 2.32 2.30 2.38 2.52 2.30 1.94 1.81 1.74 1.61 1.44 1.41 1.31 1.23 1.23 1.19
0.79 0.84 0.93 1.06 1.08 1.08 1.12 1.26 1.35 1.33 1.29 1.19 1.24 1.30 1.28 1.40 1.66 1.98 2.14 2.19 2.26 2.23 2.28 2.45 2.49 2.51 2.45 2.34 2.38 2.35 2.32 2.48 2.36 2.05 1.94 1.81 1.69 1.51 1.43 1.38 1.21 1.14 1.18
0.72 0.75 0.83 0.98 1.14 1.21 1.26 1.32 1.40 1.41 1.33 1.31 1.32 1.31 1.45 1.55 1.59 1.77 1.97 2.07 2.14 2.15 2.28 2.33 2.31 2.40 2.33 2.31 2.21 2.18 2.20 2.37 2.49 2.24 2.14 2.12 1.95 1.75 1.64 1.50 1.36 1.34 1.14
0.63 0.76 0.87 1.07 1.29 1.39 1.40 1.42 1.43 1.43 1.39 1.42 1.43 1.48 1.60 1.63 1.60 1.70 1.85 1.98 2.06 2.08 2.16 2.22 2.28 2.28 2.32 2.41 2.30 2.30 2.41 2.53 2.59 2.50 2.38 2.42 2.30 2.08 1.89 1.69 1.52 1.41 1.28
0.80 0.92 1.07 1.29 1.36 1.40 1.46 1.48 1.51 1.53 1.45 1.53 1.60 1.60 1.60 1.52 1.47 1.70 1.84 1.87 2.04 2.09 2.06 2.02 2.10 2.27 2.35 2.38 2.20 2.29 2.44 2.44 2.41 2.44 2.39 2.48 2.45 2.30 1.99 1.73 1.64 1.61 1.46
1.08 1.20 1.27 1.36 1.42 1.37 1.36 1.38 1.51 1.56 1.64 1.75 1.78 1.78 1.69 1.48 1.68 1.78 1.81 1.88 1.98 2.00 2.00 1.90 1.82 1.82 1.91 2.04 2.05 2.05 2.13 2.20 2.28 2.29 2.29 2.36 2.38 2.29 2.12 1.92 1.81 1.71 1.60
1.37 1.54 1.54 1.51 1.53 1.50 1.50 1.49 1.53 1.69 1.82 1.85 1.83 1.84 1.80 1.83 1.85 1.66 1.60 1.55 1.59 1.66 1.66 1.63 1.42 1.34 1.61 1.71 1.87 1.86 1.75 1.74 1.80 1.97 2.08 2.08 2.23 2.29 2.29 2.07 2.00 1.88 1.70
1.55 1.69 1.79 1.80 1.87 1.92 1.98 1.92 1.93 1.98 2.06 2.02 1.94 1.95 2.01 2.03 2.04 1.73 1.62 1.49 1.47 1.46 1.45 1.41 1.41 1.41 1.49 1.63 1.68 1.64 1.57 1.52 1.54 1.55 1.64 1.86 2.06 2.25 2.28 2.19 2.17 2.04 1.82
1.80 1.93 2.04 2.10 2.11 2.11 2.13 2.22 2.31 2.42 2.44 2.34 2.28 2.30 2.32 2.41 2.41 2.09 1.94 1.70 1.61 1.53 1.55 1.59 1.61 1.48 1.54 1.53 1.52 1.48 1.45 1.49 1.51 1.50 1.50 1.67 1.86 2.00 2.19 2.18 2.11 2.01 1.79
1.92 2.07 2.26 2.36 2.38 2.33 2.35 2.50 2.66 2.79 2.75 2.73 2.74 2.76 2.69 2.68 2.64 2.27 2.12 1.90 1.86 1.80 1.81 1.70 1.62 1.45 1.40 1.35 1.34 1.38 1.32 1.33 1.48 1.49 1.45 1.52 1.65 1.80 2.01 2.00 1.92 1.95 1.78
2.18 2.26 2.35 2.43 2.55 2.60 2.66 2.71 2.87 2.98 2.95 2.90 2.83 2.78 2.71 2.68 2.62 2.30 2.12 1.90 1.88 1.91 1.82 1.74 1.63 1.49 1.32 1.29 1.23 1.22 1.24 1.34 1.42 1.46 1.52 1.59 1.72 1.83 1.86 1.87 1.89 1.82 1.77
2.42 2.52 2.55 2.55 2.47 2.46 2.69 2.85 3.02 3.18 3.15 3.08 3.10 2.96 2.81 2.70 2.45 2.23 2.07 1.94 1.99 2.03 1.95 1.86 1.77 1.63 1.39 1.31 1.18 1.14 1.19 1.16 1.23 1.34 1.40 1.50 1.63 1.78 1.89 1.98 1.99 1.88 1.73
2.40 2.44 2.53 2.57 2.59 2.62 2.81 2.97 3.16 3.24 3.16 3.05 3.05 2.98 2.80 2.63 2.50 2.27 2.03 1.93 1.95 1.93 2.01 2.08 1.90 1.72 1.51 1.36 1.31 1.26 1.18 1.09 1.20 1.32 1.29 1.34 1.44 1.64 1.93 2.13 2.20 2.14 1.88
2.05 2.10 2.13 2.25 2.38 2.57 2.85 2.93 3.00 3.06 3.07 3.04 2.96 2.85 2.81 2.78 2.73 2.48 2.17 1.93 1.88 1.92 1.97 2.02 1.89 1.74 1.53 1.39 1.38 1.28 1.13 1.10 1.19 1.28 1.33 1.39 1.51 1.62 1.78 1.95 2.15 2.20 2.01
1.82 1.87 2.00 2.10 2.24 2.43 2.66 2.83 2.79 2.82 3.01 2.90 2.69 2.52 2.41 2.32 2.42 2.34 2.08 1.94 1.90 1.98 2.02 2.06 2.00 1.89 1.76 1.61 1.52 1.51 1.47 1.39 1.31 1.31 1.44 1.49 1.51 1.50 1.57 1.71 1.94 2.05 1.89
1.66 1.68 1.73 1.78 1.92 2.08 2.24 2.37 2.39 2.18 2.25 2.15 1.98 1.83 1.72 1.69 1.73 1.62 1.50 1.45 1.53 1.70 1.78 1.95 1.98 1.89 1.80 1.76 1.72 1.68 1.63 1.53 1.44 1.42 1.45 1.48 1.47 1.47 1.50 1.60 1.72 1.82 1.77
1.76 1.70 1.69 1.73 1.84 1.90 1.93 1.98 2.03 1.90 1.75 1.67 1.53 1.36 1.26 1.25 1.29 1.31 1.35 1.35 1.42 1.49 1.53 1.71 1.75 1.72 1.70 1.73 1.73 1.66 1.58 1.54 1.56 1.50 1.43 1.46 1.51 1.50 1.52 1.59 1.65 1.74 1.77
2.02 1.95 1.81 1.77 1.79 1.75 1.76 1.83 1.92 1.95 1.82 1.60 1.38 1.15 1.04 1.04 1.11 1.26 1.43 1.38 1.39 1.39 1.37 1.49 1.52 1.55 1.62 1.68 1.70 1.68 1.60 1.60 1.65 1.62 1.57 1.59 1.67 1.67 1.62 1.62 1.69 1.72 1.77
1.93 1.91 1.78 1.76 1.80 1.90 1.88 1.89 1.96 1.97 2.01 1.91 1.62 1.36 1.21 1.14 1.18 1.33 1.41 1.29 1.31 1.31 1.33 1.43 1.49 1.52 1.57 1.66 1.69 1.70 1.69 1.71 1.69 1.69 1.68 1.68 1.76 1.82 1.70 1.61 1.66 1.76 1.74
1.62 1.71 1.61 1.60 1.61 1.75 1.82 1.81 1.85 1.96 1.98 1.89 1.72 1.46 1.20 1.07 1.07 1.26 1.35 1.41 1.45 1.47 1.48 1.48 1.56 1.60 1.59 1.59 1.63 1.64 1.66 1.68 1.67 1.66 1.69 1.75 1.79 1.80 1.70 1.65 1.65 1.71 1.67
1.40 1.40 1.35 1.36 1.44 1.56 1.66 1.69 1.67 1.69 1.74 1.70 1.57 1.30 1.08 1.00 1.09 1.21 1.33 1.46 1.52 1.55 1.56 1.55 1.55 1.51 1.50 1.53 1.56 1.57 1.63 1.65 1.64 1.64 1.69 1.75 1.75 1.74 1.69 1.68 1.68 1.68 1.73
1.33 1.30 1.17 1.17 1.33 1.42 1.46 1.53 1.48 1.45 1.45 1.46 1.37 1.14 1.03 0.98 1.09 1.22 1.36 1.42 1.44 1.48 1.47 1.47 1.44 1.43 1.42 1.45 1.50 1.53 1.57 1.58 1.57 1.57 1.60 1.64 1.65 1.64 1.64 1.66 1.69 1.71 1.72
1.14 1.20 1.14 1.12 1.23 1.25 1.28 1.42 1.45 1.45 1.45 1.43 1.27 1.13 1.06 1.12 1.21 1.31 1.40 1.40 1.32 1.31 1.33 1.35 1.34 1.32 1.27 1.29 1.33 1.37 1.45 1.49 1.47 1.46 1.49 1.48 1.49 1.49 1.48 1.49 1.52 1.61 1.64
0.89 1.04 1.04 0.98 1.00 1.09 1.20 1.35 1.44 1.40 1.39 1.42 1.33 1.21 1.18 1.23 1.28 1.33 1.38 1.35 1.29 1.30 1.30 1.26 1.20 1.14 1.10 1.16 1.21 1.17 1.15 1.16 1.16 1.22 1.29 1.32 1.38 1.42 1.40 1.39 1.45 1.52 1.62
0.85 0.97 0.92 0.86 0.84 0.94 1.09 1.22 1.29 1.28 1.25 1.23 1.16 1.09 1.08 1.13 1.19 1.18 1.17 1.16 1.13 1.12 1.08 1.05 1.05 1.02 0.96 0.91 0.91 0.90 0.94 0.91 0.87 0.90 1.01 1.14 1.20 1.32 1.40 1.45 1.52 1.59 1.63
0.83 0.90 0.89 0.79 0.77 0.86 1.02 1.12 1.18 1.23 1.24 1.19 1.14 1.11 1.10 1.12 1.07 1.03 1.04 1.04 1.04 1.03 0.99 0.94 0.91 0.86 0.83 0.79 0.77 0.79 0.79 0.74 0.72 0.78 0.82 0.92 1.04 1.19 1.28 1.34 1.38 1.50 1.58